COOK73 UKDE-UNOO

Flight info

Callsign COOK73
Flight time N/A
Altitude 33000
Route ODNIV N604 NIKAD L68 LUZKA N604 ATLOG L749 BASAB T762 ABALI L158 PEMAG A231 MATIL MATIL6N
Aircraft C25C/M-SDE2E3FGHRWXY/LB1

Departure

Time 2026-04-14 22:26
Airport Zaporizhzhia International Airport (UKDE)

Arrival

Time N/A
Airport Omsk Central Airport (UNOO)
Time Latitude Longitude Altitude Speed Heading
2026-04-14 22:08 47.86511 35.31677 357 ft 0 kts 293°
2026-04-14 22:18 47.86510 35.31682 357 ft 2 kts 286°
2026-04-14 22:18 47.86513 35.31697 355 ft 2 kts 211°
2026-04-14 22:19 47.86524 35.31698 364 ft 2 kts 186°
2026-04-14 22:19 47.86526 35.31699 364 ft 0 kts 202°
2026-04-14 22:20 47.86505 35.31688 362 ft 6 kts 200°
2026-04-14 22:20 47.86465 35.31665 357 ft 6 kts 200°
2026-04-14 22:21 47.86421 35.31640 356 ft 7 kts 213°
2026-04-14 22:21 47.86398 35.31582 356 ft 7 kts 219°
2026-04-14 22:21 47.86355 35.31553 355 ft 7 kts 202°
2026-04-14 22:21 47.86307 35.31524 354 ft 8 kts 201°
2026-04-14 22:22 47.86253 35.31491 357 ft 9 kts 204°
2026-04-14 22:22 47.86195 35.31451 352 ft 10 kts 204°
2026-04-14 22:22 47.86130 35.31410 351 ft 10 kts 203°
2026-04-14 22:22 47.86061 35.31367 350 ft 11 kts 203°
2026-04-14 22:23 47.85986 35.31323 349 ft 12 kts 202°
2026-04-14 22:23 47.85907 35.31274 347 ft 13 kts 203°
2026-04-14 22:23 47.85849 35.31237 346 ft 8 kts 203°
2026-04-14 22:23 47.85798 35.31203 345 ft 8 kts 210°
2026-04-14 22:24 47.85772 35.31127 353 ft 9 kts 257°
2026-04-14 22:24 47.85764 35.31037 344 ft 9 kts 269°
2026-04-14 22:24 47.85769 35.30957 344 ft 7 kts 292°
2026-04-14 22:24 47.85800 35.30938 344 ft 0 kts 17°
2026-04-14 22:25 47.85880 35.30983 345 ft 42 kts 23°
2026-04-14 22:25 47.86438 35.31331 355 ft 129 kts 22°
2026-04-14 22:26 47.87392 35.31931 913 ft 153 kts 20°
2026-04-14 22:26 47.88446 35.32601 1737 ft 180 kts 18°
2026-04-14 22:26 47.89662 35.33311 2711 ft 188 kts
2026-04-14 22:26 47.90930 35.33175 3832 ft 186 kts 343°
2026-04-14 22:27 47.92042 35.32191 4904 ft 190 kts 315°
2026-04-14 22:27 47.92753 35.30513 6007 ft 195 kts 296°
2026-04-14 22:27 47.93318 35.28653 7106 ft 198 kts 296°
2026-04-14 22:27 47.93884 35.26760 8180 ft 201 kts 296°
2026-04-14 22:28 47.94663 35.25036 9268 ft 203 kts 320°
2026-04-14 22:28 47.95908 35.24019 10209 ft 209 kts 343°
2026-04-14 22:28 47.97340 35.23544 11148 ft 212 kts 345°
2026-04-14 22:28 47.98794 35.23036 12084 ft 217 kts 346°
2026-04-14 22:29 48.00276 35.22526 13002 ft 221 kts 345°
2026-04-14 22:29 48.01790 35.22004 13924 ft 225 kts 346°
2026-04-14 22:29 48.03333 35.21476 14729 ft 229 kts 346°
2026-04-14 22:29 48.04899 35.20936 15517 ft 233 kts 346°
2026-04-14 22:30 48.06496 35.20397 16298 ft 237 kts 346°
2026-04-14 22:30 48.08117 35.19845 17110 ft 241 kts 346°
2026-04-14 22:30 48.09765 35.19289 17938 ft 245 kts 346°
2026-04-14 22:30 48.11440 35.18710 18740 ft 249 kts 347°
2026-04-14 22:31 48.13141 35.18131 19466 ft 253 kts 347°
2026-04-14 22:31 48.14871 35.17544 20226 ft 257 kts 347°
2026-04-14 22:31 48.16604 35.16951 21027 ft 261 kts 347°
2026-04-14 22:31 48.18387 35.16340 21689 ft 266 kts 347°
2026-04-14 22:32 48.20208 35.15718 22311 ft 271 kts 347°
2026-04-14 22:32 48.22063 35.15084 22942 ft 275 kts 347°
2026-04-14 22:32 48.23947 35.14439 23539 ft 280 kts 348°
2026-04-14 22:32 48.25858 35.13783 24058 ft 284 kts 348°
2026-04-14 22:33 48.27787 35.13121 24600 ft 285 kts 348°
2026-04-14 22:33 48.29725 35.12455 25129 ft 286 kts 348°
2026-04-14 22:33 48.31673 35.11787 25630 ft 288 kts 348°
2026-04-14 22:33 48.33635 35.11114 26131 ft 290 kts 349°
2026-04-14 22:34 48.35633 35.11049 26606 ft 290 kts 13°
2026-04-14 22:34 48.37473 35.12234 27086 ft 290 kts 37°
2026-04-14 22:34 48.39056 35.14150 27546 ft 293 kts 40°
2026-04-14 22:34 48.40611 35.16152 28014 ft 295 kts 41°
2026-04-14 22:35 48.42176 35.18176 28478 ft 298 kts 41°
2026-04-14 22:35 48.43760 35.20184 29015 ft 297 kts 40°
2026-04-14 22:35 48.45340 35.22180 29541 ft 296 kts 40°
2026-04-14 22:35 48.46385 35.23506 29881 ft 296 kts 40°
2026-04-14 22:36 48.47955 35.25508 30362 ft 295 kts 41°
2026-04-14 22:36 48.49523 35.27506 30751 ft 296 kts 40°
2026-04-14 22:36 48.51093 35.29509 31140 ft 296 kts 40°
2026-04-14 22:36 48.52666 35.31512 31529 ft 296 kts 40°
2026-04-14 22:37 48.54238 35.33521 31918 ft 296 kts 40°
2026-04-14 22:37 48.55812 35.35530 32305 ft 296 kts 40°
2026-04-14 22:37 48.57385 35.37544 32687 ft 297 kts 40°
2026-04-14 22:37 48.58962 35.39562 33022 ft 299 kts 40°
2026-04-14 22:38 48.60574 35.41626 33111 ft 309 kts 40°
2026-04-14 22:38 48.62244 35.43765 33141 ft 321 kts 40°
2026-04-14 22:38 48.63972 35.45986 33145 ft 332 kts 40°
2026-04-14 22:38 48.65765 35.48290 33148 ft 343 kts 40°
2026-04-14 22:39 48.67615 35.50667 33143 ft 353 kts 40°
2026-04-14 22:39 48.71455 35.55612 33143 ft 371 kts 40°
2026-04-14 22:40 48.75442 35.60758 33140 ft 386 kts 41°
2026-04-14 22:40 48.79582 35.66113 33135 ft 397 kts 41°
2026-04-14 22:41 48.83855 35.71653 33134 ft 405 kts 41°
2026-04-14 22:41 48.88148 35.77232 33127 ft 412 kts 41°
2026-04-14 22:42 48.92531 35.82942 33119 ft 417 kts 41°
2026-04-14 22:42 48.96950 35.88711 33117 ft 420 kts 41°
2026-04-14 22:43 49.01409 35.94526 33112 ft 424 kts 41°
2026-04-14 22:43 49.05977 36.00237 33110 ft 425 kts 41°
2026-04-14 22:44 49.10522 36.06048 33103 ft 427 kts 41°
2026-04-14 22:44 49.15090 36.11855 33100 ft 428 kts 41°
2026-04-14 22:45 49.19656 36.17693 33096 ft 428 kts 42°
2026-04-14 22:45 49.24227 36.23549 33086 ft 429 kts 42°
2026-04-14 22:46 49.28799 36.29421 33084 ft 429 kts 42°
2026-04-14 22:46 49.33363 36.35316 33082 ft 429 kts 42°
2026-04-14 22:47 49.37919 36.41219 33077 ft 429 kts 42°
2026-04-14 22:47 49.42442 36.47089 33075 ft 429 kts 42°
2026-04-14 22:48 49.46994 36.53013 33069 ft 428 kts 43°
2026-04-14 22:48 49.51530 36.58932 33065 ft 427 kts 43°
2026-04-14 22:49 49.56056 36.64854 33062 ft 426 kts 43°
2026-04-14 22:49 49.60558 36.70761 33053 ft 424 kts 43°
2026-04-14 22:50 49.65043 36.76658 33046 ft 423 kts 43°
2026-04-14 22:50 49.69514 36.82552 33042 ft 422 kts 43°
2026-04-14 22:51 49.73971 36.88440 33039 ft 421 kts 43°
2026-04-14 22:51 49.78418 36.94330 33031 ft 421 kts 44°
2026-04-14 22:52 49.82855 37.00223 33030 ft 420 kts 44°
2026-04-14 22:52 49.87288 37.06127 33028 ft 419 kts 44°
2026-04-14 22:53 49.91706 37.12026 33027 ft 419 kts 44°
2026-04-14 22:53 49.96120 37.17933 33022 ft 419 kts 44°
2026-04-14 22:54 50.00526 37.23843 33022 ft 418 kts 44°
2026-04-14 22:54 50.04926 37.29763 32918 ft 417 kts 39°
2026-04-14 22:55 50.09286 37.35636 33014 ft 419 kts 39°
2026-04-14 22:55 50.13702 37.41608 33011 ft 422 kts 40°
2026-04-14 22:56 50.18153 37.47639 33017 ft 425 kts 39°
2026-04-14 22:56 50.22617 37.53705 33021 ft 428 kts 40°
2026-04-14 22:57 50.27110 37.59823 33021 ft 429 kts 39°
2026-04-14 22:57 50.31092 37.66762 33013 ft 432 kts 54°